SCP
0 0 0 0 0 0 0 0 0 0 0 0 0 0 0 0 0 0 0 0 0 0 0 0 0 0 0 0 0 0 0 0 0 0 0 0 0 0 0 0 0 0 0 0 0
0 0 0 0 0 0 0 0 0 0 0 0 0 0 0 0 0 0 0 0 0 0 0 0 0 0 0 0 0 0 0 0 0 0 0 0 0 0 0 0 0 0 0 0 0
0 0 0 0 0 0 0 0 0 0 0 0 0 0 0 0 -0 -0 0 0 0 0 0 0 0 0 0 0 0 0 0 0 0 0 0 0 0 0 0 0 0 0 0 0 0
0 0 0 0 0 0 0 0 0 0 0 0 0 0 0 0 0 0 0 0 0 0 0 0 0 0 0 0 0 0 0 0 0 0 0 0 0 0 0 0 0 0 0 0 0
0 0 0 0 0 0 0 0 0 0 0 0 0 0 0 0 0 0 0 0 -0 0 0 0 0 0 0 0 0 0 0 0 0 0 0 0 0 0 0 0 0 0 0 0 0
0 0 0 0 0 0 0 0 0 0 0 0 0 0 0 0 0 0 0 0 0 0 0 0 0 0 0 0 0 0 0 0 0 0 0 0 0 0 0 0 0 0 0 0 0
0 0 0 0 0 0 0 0 0 0 0 0 0 0 0 0 0 0 0 0 0 0 0 0 0 0 0 0 0 0 0 0 0 0 0 0 0 0 0 0 0 0 0 0 0
0 0 0 0 0 0 0 0 0 0 0 0 0 0 0 0 0 0 0 0 0 0 0 0 0 0 0 0 0 0 0 0 0 0 0 0 0 0 0 0 0 0 0 0 0
0 0 0 0 0 0 0 0 0 0 0 0 0 0 0 0 0 0 0 0 0 0 0 0 0 0 0 0 0 0 0 0 0 0 0 0 0 0 0 0 0 0 0 0 0
0 0 0 0 0 0 0 0 0 0 0 0 0 0 0 0 0 0 0 0 0 0 0 0 0 0 0 0 0 0 0 0 0 0 0 0 0 0 0 0 0 0 0 0 0
0 0 0 0 0 0 0 0 0 0 0 0 0 0 0 0 0 0 0 0 0 0 0 0 0 0 0 0 0 0 0 0 0 0 0 0 0 0 0 0 0 0 0 0 0
0 0 0 0 0 0 0 0 0 0 0 0 0 0 0 0 0 0 0 0 0 0 0 0 0 0 0 0 0 0 0 0 0 0 0 0 0 0 0 0 0 0 0 0 0
0 0 0 0 0 0 0 0 0 0 0 0 0 0 0 0 0 0 0 0 0 0 0 0 0 0 0 0 0 0 0 0 0 0 0 0 0 0 0 0 0 0 0 0 0
0 0 0 0 0 0 0 0 0 0 0 0 0 0 0 0 0 0 0 0 0 0 0 0 0 0 0 0 0 0 0 0 0 0 0 0 0 0 -0 -0 0 0 0 0 0
0 0 0 0 0 0 0 0 0 0 0 0 0 0 0 0 0 0 0 0 0 0 0 0 0 0 0 0 0 0 0 0 0 0 0 0 0 -0 -0 0 -0 0 0 0 0
0 0 0 0 0 0 0 0 0 0 0 0 0 0 0 0 0 -0 0 0 0 0 0 0 0 0 0 0 0 0 0 0 0 0 0 0 0 -0 0 0 0 0 0 0 0
0 0 0 0 0 0 0 0 0 0 0 0 0 0 0 -0 0 -0 0 0 0 0 0 0 0 0 0 0 0 0 0 0 0 0 0 0 0 0 0 0 0 0 0 0 0
0 0 0 0 0 0 0 0 0 0 0 0 0 0 0 0 0 0 0 0 0 0 0 0 0 0 0 0 0 0 0 0 0 0 0 0 0 0 0 0 0 0 0 0 0
0 0 0 0 0 0 0 0 0 0 0 0 0 0 0 0 0 0 -0 0 0 0 0 0 0 0 0 0 0 0 0 0 0 0 0 0 0 0 0 0 0 0 0 0 0
0 0 0 0 0 0 0 0 0 0 0 0 0 0 0 0 0 0 0 0 0 0 0 0 0 0 0 0 0 0 0 0 0 0 0 0 0 0 0 0 0 0 0 0 0
0 0 0 0 0 0 0 0 0 0 0 0 0 0 0 0 0 0 0 0 0 0 0 0 0 0 0 0 0 0 0 0 0 0 0 0 0 0 0 0 0 0 0 0 0
0 0 0 0 0 0 0 0 0 0 0 0 0 0 0 0 0 0 0 0 0 0 0 0 0 0 0 0 0 0 0 0 0 0 0 0 0 0 0 0 0 0 0 0 0
0 0 0 0 0 0 0 0 0 0 0 0 0 0 0 0 0 0 0 0 0 0 0 0 0 0 0 0 0 0 0 0 0 0 0 0 0 0 0 -0 0 0 0 0 0
0 0 0 0 0 0 0 0 0 0 0 0 0 0 0 0 0 0 0 0 0 0 0 0 0 0 0 0 0 0 0 0 0 0 0 0 0 0 0 0 0 0 0 0 0
0 0 0 0 0 0 0 0 0 0 0 0 0 0 0 0 0 0 0 0 0 0 0 0 0 0 0 0 0 0 0 0 0 0 0 0 0 0 0 0 0 0 0 0 0
0 0 0 0 0 0 0 0 0 0 0 0 0 0 0 0 0 0 0 0 0 0 0 -0 0 0 0 0 -0 -0 0 0 0 0 0 0 0 -0 0 0 0 0 0 -0 -0
0 0 0 0 0 0 0 0 0 0 0 0 0 0 0 0 0 0 0 0 0 0 0 -0 -0 0 -0 0 -0 0 0 0 0 0 0 0 0 0 0 0 0 0 0 -0 -0
Wind_Speed_500mb
43 46 46 47 47 49 49 49 49 51 54 55 52 53 56 56 61 56 60 62 52 34 46 43 25 37 41 34 36 24 9 19 25 20 13 5 7 13 12 19 22 21 22 16 14
44 43 45 50 49 52 51 50 50 50 50 54 54 51 52 56 59 67 61 58 55 43 43 48 44 35 25 25 22 14 17 24 12 17 11 10 20 13 9 16 16 24 36 39 33
45 48 47 47 50 51 51 51 51 50 48 51 54 53 45 45 58 25 12 17 23 42 48 43 45 40 28 22 22 14 33 14 13 32 40 15 12 16 15 13 22 36 45 44 42
43 41 43 48 43 44 46 48 48 47 53 56 55 55 43 40 15 9 14 25 35 24 43 44 45 26 14 21 27 13 20 24 23 38 18 10 10 13 34 40 39 29 36 37 50
43 45 45 46 41 37 41 44 45 55 54 55 54 52 38 24 57 53 61 61 45 29 37 49 45 42 15 14 24 12 7 26 54 44 41 31 23 26 28 51 52 46 41 45 45
48 48 47 43 37 42 43 39 45 49 48 46 46 42 31 35 40 28 29 28 23 25 34 48 26 41 17 17 19 8 28 36 33 35 32 17 20 19 42 54 57 52 56 53 52
46 46 47 43 41 38 42 41 43 46 54 53 43 37 46 87 52 54 51 39 30 28 35 46 55 23 9 4 26 21 14 9 13 14 11 18 30 25 57 46 52 58 64 65 71
49 48 47 44 42 43 45 47 50 51 56 56 47 35 39 51 52 60 53 48 39 30 31 28 36 48 12 10 5 6 6 25 15 17 11 29 51 8 55 66 68 76 71 66 71
52 53 51 48 44 45 44 43 55 55 57 54 39 24 36 30 32 23 25 37 30 29 24 15 18 20 10 7 8 9 18 10 9 22 9 13 52 5 19 47 53 66 67 68 72
56 55 52 49 43 40 41 43 50 47 41 22 16 14 35 21 23 26 23 17 20 11 17 20 14 6 3 16 32 15 10 10 24 10 8 13 46 13 10 22 40 48 54 56 57
55 55 51 50 45 40 36 32 21 14 9 17 39 47 74 57 44 24 15 10 19 14 13 10 9 21 51 29 28 3 21 20 4 11 12 27 39 30 22 24 30 52 57 65 73
55 53 47 46 41 26 25 21 23 30 31 51 70 82 83 68 34 29 13 15 13 12 10 6 27 48 14 19 24 12 25 31 7 7 12 5 32 20 16 27 41 53 69 81 80
49 45 33 39 37 27 30 22 34 32 15 25 30 19 14 15 29 47 33 14 10 12 14 17 24 18 17 11 23 33 35 42 24 9 5 5 24 14 16 27 46 67 82 74 80
45 44 45 33 23 24 21 27 26 27 7 14 5 4 5 4 9 19 32 27 9 17 13 22 20 10 5 18 28 33 21 36 14 7 19 5 20 31 9 21 15 46 52 74 63
47 40 38 38 27 33 35 22 22 12 9 6 3 8 10 4 15 11 14 16 10 7 10 14 5 13 34 45 21 18 8 18 26 28 13 13 6 34 7 13 24 29 40 33 23
44 46 40 31 30 29 28 29 15 7 14 13 7 11 10 4 6 4 2 8 3 7 9 28 7 4 7 4 26 13 7 6 6 7 10 29 25 52 17 14 14 4 16 18 14
44 44 43 38 22 22 23 10 2 8 9 14 7 10 7 8 7 8 8 10 8 3 19 24 31 8 8 4 1 3 10 5 3 5 18 12 18 43 7 8 12 12 16 19 25
54 47 42 39 24 14 5 2 6 7 12 6 7 11 8 7 7 3 6 8 12 2 7 11 11 23 13 30 16 17 21 10 13 13 16 4 17 18 12 7 10 20 31 29 31
61 51 35 36 11 4 2 1 14 10 4 11 17 7 9 5 5 7 7 8 8 22 18 7 10 3 3 4 3 9 18 13 7 3 2 9 14 17 15 8 8 18 33 29 29
59 53 27 10 3 3 4 12 9 6 2 3 12 6 8 8 6 4 3 9 7 6 3 7 13 3 4 2 4 8 4 8 7 12 11 10 11 21 2 12 12 13 17 21 20
50 28 9 10 6 5 6 15 10 11 8 9 7 9 10 9 11 8 8 10 1 8 3 5 9 4 3 8 20 6 6 3 0 5 8 3 12 10 12 10 26 21 32 24 21
27 5 15 35 2 4 7 8 7 8 7 10 10 19 21 13 10 10 12 10 10 2 7 11 7 8 17 4 4 1 14 19 8 9 4 2 22 0 14 11 18 18 22 20 17
13 17 20 6 6 6 8 9 9 8 7 7 9 7 4 9 8 10 5 7 24 2 5 6 6 5 7 5 3 5 7 16 14 2 12 6 9 13 12 13 28 22 19 19 12
22 4 13 22 16 9 7 11 6 8 9 10 8 10 8 7 8 11 7 7 19 13 16 14 6 9 6 3 2 5 1 4 14 10 8 30 19 16 15 14 8 18 17 14 10
28 17 20 6 10 11 10 9 7 6 11 8 8 4 2 6 10 8 11 12 8 11 15 14 7 4 8 11 11 14 13 13 19 21 17 15 32 23 6 4 1 9 13 11 6
35 12 17 11 17 16 19 12 19 17 11 10 15 8 7 5 9 10 5 4 11 9 14 6 9 6 9 14 17 20 20 25 28 20 25 31 45 33 6 6 12 10 5 7 9
56 68 42 27 14 16 17 25 27 16 20 30 17 11 12 22 31 33 31 28 25 9 2 6 6 12 8 12 5 11 17 24 6 11 8 17 7 23 9 14 6 12 12 6 9
Wind_Direction_500mb
322 320 319 322 327 327 330 331 334 334 335 332 326 319 316 309 302 296 285 284 282 269 257 255 246 217 215 218 216 201 231 231 230 195 236 201 195 224 218 214 214 209 222 219 226
308 306 309 313 317 315 319 324 325 327 327 328 328 322 320 313 309 300 298 285 270 259 248 240 230 209 199 212 206 189 226 230 200 197 217 212 201 215 194 211 231 227 232 236 244
310 300 307 306 301 304 309 311 316 319 324 324 325 322 321 319 317 304 320 332 300 241 235 238 232 216 210 208 196 210 237 214 214 217 230 219 214 211 200 242 214 227 240 242 240
315 316 316 311 307 303 307 312 311 315 322 322 325 323 318 312 283 287 300 295 308 315 223 229 217 196 196 210 208 235 235 225 231 226 216 222 206 206 205 237 257 256 252 247 240
327 329 319 316 307 303 301 305 309 318 319 314 316 324 316 288 263 287 278 280 290 280 232 221 211 208 200 199 220 238 209 231 241 242 235 236 221 228 221 249 255 255 251 245 239
331 328 325 319 311 308 302 304 305 316 326 318 310 314 299 266 291 290 288 283 268 249 230 220 226 218 232 218 198 237 221 237 241 239 230 212 253 211 243 249 250 246 248 247 247
334 331 322 320 304 298 302 302 298 311 317 316 309 300 277 260 281 278 272 269 255 245 241 230 225 213 251 275 260 249 255 273 222 214 232 204 270 226 242 242 239 240 249 253 253
341 336 329 324 312 299 287 294 292 295 306 307 295 285 264 277 284 276 271 273 241 236 242 237 237 239 243 286 301 237 192 247 216 159 220 167 257 301 239 234 235 246 249 249 251
342 338 333 328 317 305 301 292 301 296 300 295 289 263 270 286 287 302 285 260 243 240 233 219 212 209 208 214 320 234 249 220 279 201 147 192 257 185 215 222 235 244 250 252 255
344 339 335 328 322 311 302 287 293 301 291 290 246 267 263 285 297 300 294 249 215 203 211 205 187 183 199 183 222 199 224 233 238 195 186 191 255 247 240 227 244 256 253 253 254
345 341 336 332 326 321 325 338 324 295 293 241 274 251 269 279 285 284 285 214 215 212 183 196 184 209 220 220 235 193 224 240 227 202 164 219 242 256 254 257 255 258 256 259 263
347 348 345 347 335 352 342 332 324 296 298 282 278 265 261 268 287 284 252 192 188 207 149 138 230 227 148 196 236 247 245 251 282 174 186 232 258 260 241 255 237 243 255 261 261
348 352 351 357 351 2 345 348 337 324 272 287 270 275 310 275 249 255 237 223 201 186 216 212 218 198 214 178 210 229 233 250 246 171 239 328 275 246 242 250 252 250 252 255 258
350 347 345 352 341 344 349 333 345 348 342 284 274 281 286 268 246 328 236 224 216 217 184 236 267 177 161 236 208 237 225 251 232 194 246 188 277 272 222 241 232 251 248 256 264
336 345 339 336 321 327 330 331 315 333 320 275 290 311 312 222 313 17 217 227 242 204 134 236 236 216 227 233 171 240 197 221 225 224 238 226 254 269 149 256 254 255 251 246 240
332 331 336 333 307 313 331 306 300 54 253 320 317 351 359 241 262 242 171 218 215 227 214 248 287 277 265 346 195 135 119 95 91 143 220 227 201 270 217 202 246 186 177 210 217
330 329 327 325 320 330 334 327 346 199 344 307 331 359 318 271 284 205 188 175 219 221 238 252 243 206 187 209 67 156 148 194 209 182 235 177 177 237 219 215 209 202 154 141 128
331 331 320 314 316 343 346 100 225 235 246 346 340 287 261 331 241 289 267 263 231 133 358 244 293 209 189 208 186 177 222 173 213 214 224 157 225 239 233 258 211 156 145 131 119
329 332 315 308 311 321 175 181 217 223 266 328 313 350 303 305 264 341 234 242 251 190 197 279 265 44 84 338 206 173 216 214 99 53 240 202 275 290 203 213 158 157 158 135 120
326 333 299 330 42 136 204 234 234 226 301 193 284 238 256 268 348 360 278 236 261 223 255 204 286 261 333 143 19 133 313 164 168 194 216 239 262 238 284 188 166 175 170 156 122
324 322 291 347 8 234 201 228 269 274 231 222 256 276 254 281 219 218 234 282 267 330 192 87 210 271 339 208 192 115 224 343 341 199 194 262 254 230 272 206 185 170 166 155 131
306 333 289 303 351 257 246 213 298 276 247 283 280 263 261 251 234 231 237 240 2 46 212 204 222 245 235 196 149 26 204 191 222 208 235 296 257 59 277 233 147 158 143 129 123
238 255 275 225 217 242 282 281 293 298 238 245 259 270 329 303 330 267 246 64 12 282 279 170 212 288 303 358 0 179 191 211 220 106 202 182 263 9 29 84 116 130 128 122 120
255 261 206 199 230 176 203 258 253 323 283 292 295 317 317 298 256 277 293 358 341 0 342 295 216 208 220 227 101 137 27 297 185 225 199 233 286 0 28 110 92 98 120 122 131
237 225 218 212 246 194 169 207 204 259 220 230 294 139 304 276 329 312 5 323 335 34 19 12 298 343 293 242 237 252 230 205 223 248 245 281 261 272 172 229 279 90 136 139 148
253 193 188 216 180 153 200 223 208 231 165 255 217 178 173 194 194 282 68 338 261 317 352 100 309 311 275 265 216 244 233 234 229 224 248 255 266 281 128 292 251 250 167 175 196
263 244 232 203 175 183 199 206 217 182 229 218 188 170 210 224 237 244 264 250 248 242 244 239 204 345 273 335 300 311 237 224 186 56 313 243 299 336 276 253 345 315 256 218 182
Wind_Speed_850mb
43 46 46 47 47 49 49 49 49 51 54 55 52 53 56 56 61 56 60 62 52 34 46 43 25 37 41 34 36 24 9 19 25 20 13 5 7 13 12 19 22 21 22 16 14
44 43 45 50 49 52 51 50 50 50 50 54 54 51 52 56 59 67 61 58 55 43 43 48 44 35 25 25 22 14 17 24 12 17 11 10 20 13 9 16 16 24 36 39 33
45 48 47 47 50 51 51 51 51 50 48 51 54 53 45 45 58 25 12 17 23 42 48 43 45 40 28 22 22 14 33 14 13 32 40 15 12 16 15 13 22 36 45 44 42
43 41 43 48 43 44 46 48 48 47 53 56 55 55 43 40 15 9 14 25 35 24 43 44 45 26 14 21 27 13 20 24 23 38 18 10 10 13 34 40 39 29 36 37 50
43 45 45 46 41 37 41 44 45 55 54 55 54 52 38 24 57 53 61 61 45 29 37 49 45 42 15 14 24 12 7 26 54 44 41 31 23 26 28 51 52 46 41 45 45
48 48 47 43 37 42 43 39 45 49 48 46 46 42 31 35 40 28 29 28 23 25 34 48 26 41 17 17 19 8 28 36 33 35 32 17 20 19 42 54 57 52 56 53 52
46 46 47 43 41 38 42 41 43 46 54 53 43 37 46 87 52 54 51 39 30 28 35 46 55 23 9 4 26 21 14 9 13 14 11 18 30 25 57 46 52 58 64 65 71
49 48 47 44 42 43 45 47 50 51 56 56 47 35 39 51 52 60 53 48 39 30 31 28 36 48 12 10 5 6 6 25 15 17 11 29 51 8 55 66 68 76 71 66 71
52 53 51 48 44 45 44 43 55 55 57 54 39 24 36 30 32 23 25 37 30 29 24 15 18 20 10 7 8 9 18 10 9 22 9 13 52 5 19 47 53 66 67 68 72
56 55 52 49 43 40 41 43 50 47 41 22 16 14 35 21 23 26 23 17 20 11 17 20 14 6 3 16 32 15 10 10 24 10 8 13 46 13 10 22 40 48 54 56 57
55 55 51 50 45 40 36 32 21 14 9 17 39 47 74 57 44 24 15 10 19 14 13 10 9 21 51 29 28 3 21 20 4 11 12 27 39 30 22 24 30 52 57 65 73
55 53 47 46 41 26 25 21 23 30 31 51 70 82 83 68 34 29 13 15 13 12 10 6 27 48 14 19 24 12 25 31 7 7 12 5 32 20 16 27 41 53 69 81 80
49 45 33 39 37 27 30 22 34 32 15 25 30 19 14 15 29 47 33 14 10 12 14 17 24 18 17 11 23 33 35 42 24 9 5 5 24 14 16 27 46 67 82 74 80
45 44 45 33 23 24 21 27 26 27 7 14 5 4 5 4 9 19 32 27 9 17 13 22 20 10 5 18 28 33 21 36 14 7 19 5 20 31 9 21 15 46 52 74 63
47 40 38 38 27 33 35 22 22 12 9 6 3 8 10 4 15 11 14 16 10 7 10 14 5 13 34 45 21 18 8 18 26 28 13 13 6 34 7 13 24 29 40 33 23
44 46 40 31 30 29 28 29 15 7 14 13 7 11 10 4 6 4 2 8 3 7 9 28 7 4 7 4 26 13 7 6 6 7 10 29 25 52 17 14 14 4 16 18 14
44 44 43 38 22 22 23 10 2 8 9 14 7 10 7 8 7 8 8 10 8 3 19 24 31 8 8 4 1 3 10 5 3 5 18 12 18 43 7 8 12 12 16 19 25
54 47 42 39 24 14 5 2 6 7 12 6 7 11 8 7 7 3 6 8 12 2 7 11 11 23 13 30 16 17 21 10 13 13 16 4 17 18 12 7 10 20 31 29 31
61 51 35 36 11 4 2 1 14 10 4 11 17 7 9 5 5 7 7 8 8 22 18 7 10 3 3 4 3 9 18 13 7 3 2 9 14 17 15 8 8 18 33 29 29
59 53 27 10 3 3 4 12 9 6 2 3 12 6 8 8 6 4 3 9 7 6 3 7 13 3 4 2 4 8 4 8 7 12 11 10 11 21 2 12 12 13 17 21 20
50 28 9 10 6 5 6 15 10 11 8 9 7 9 10 9 11 8 8 10 1 8 3 5 9 4 3 8 20 6 6 3 0 5 8 3 12 10 12 10 26 21 32 24 21
27 5 15 35 2 4 7 8 7 8 7 10 10 19 21 13 10 10 12 10 10 2 7 11 7 8 17 4 4 1 14 19 8 9 4 2 22 0 14 11 18 18 22 20 17
13 17 20 6 6 6 8 9 9 8 7 7 9 7 4 9 8 10 5 7 24 2 5 6 6 5 7 5 3 5 7 16 14 2 12 6 9 13 12 13 28 22 19 19 12
22 4 13 22 16 9 7 11 6 8 9 10 8 10 8 7 8 11 7 7 19 13 16 14 6 9 6 3 2 5 1 4 14 10 8 30 19 16 15 14 8 18 17 14 10
28 17 20 6 10 11 10 9 7 6 11 8 8 4 2 6 10 8 11 12 8 11 15 14 7 4 8 11 11 14 13 13 19 21 17 15 32 23 6 4 1 9 13 11 6
35 12 17 11 17 16 19 12 19 17 11 10 15 8 7 5 9 10 5 4 11 9 14 6 9 6 9 14 17 20 20 25 28 20 25 31 45 33 6 6 12 10 5 7 9
56 68 42 27 14 16 17 25 27 16 20 30 17 11 12 22 31 33 31 28 25 9 2 6 6 12 8 12 5 11 17 24 6 11 8 17 7 23 9 14 6 12 12 6 9
Wind_Direction_850mb
322 320 319 322 327 327 330 331 334 334 335 332 326 319 316 309 302 296 285 284 282 269 257 255 246 217 215 218 216 201 231 231 230 195 236 201 195 224 218 214 214 209 222 219 226
308 306 309 313 317 315 319 324 325 327 327 328 328 322 320 313 309 300 298 285 270 259 248 240 230 209 199 212 206 189 226 230 200 197 217 212 201 215 194 211 231 227 232 236 244
310 300 307 306 301 304 309 311 316 319 324 324 325 322 321 319 317 304 320 332 300 241 235 238 232 216 210 208 196 210 237 214 214 217 230 219 214 211 200 242 214 227 240 242 240
315 316 316 311 307 303 307 312 311 315 322 322 325 323 318 312 283 287 300 295 308 315 223 229 217 196 196 210 208 235 235 225 231 226 216 222 206 206 205 237 257 256 252 247 240
327 329 319 316 307 303 301 305 309 318 319 314 316 324 316 288 263 287 278 280 290 280 232 221 211 208 200 199 220 238 209 231 241 242 235 236 221 228 221 249 255 255 251 245 239
331 328 325 319 311 308 302 304 305 316 326 318 310 314 299 266 291 290 288 283 268 249 230 220 226 218 232 218 198 237 221 237 241 239 230 212 253 211 243 249 250 246 248 247 247
334 331 322 320 304 298 302 302 298 311 317 316 309 300 277 260 281 278 272 269 255 245 241 230 225 213 251 275 260 249 255 273 222 214 232 204 270 226 242 242 239 240 249 253 253
341 336 329 324 312 299 287 294 292 295 306 307 295 285 264 277 284 276 271 273 241 236 242 237 237 239 243 286 301 237 192 247 216 159 220 167 257 301 239 234 235 246 249 249 251
342 338 333 328 317 305 301 292 301 296 300 295 289 263 270 286 287 302 285 260 243 240 233 219 212 209 208 214 320 234 249 220 279 201 147 192 257 185 215 222 235 244 250 252 255
344 339 335 328 322 311 302 287 293 301 291 290 246 267 263 285 297 300 294 249 215 203 211 205 187 183 199 183 222 199 224 233 238 195 186 191 255 247 240 227 244 256 253 253 254
345 341 336 332 326 321 325 338 324 295 293 241 274 251 269 279 285 284 285 214 215 212 183 196 184 209 220 220 235 193 224 240 227 202 164 219 242 256 254 257 255 258 256 259 263
347 348 345 347 335 352 342 332 324 296 298 282 278 265 261 268 287 284 252 192 188 207 149 138 230 227 148 196 236 247 245 251 282 174 186 232 258 260 241 255 237 243 255 261 261
348 352 351 357 351 2 345 348 337 324 272 287 270 275 310 275 249 255 237 223 201 186 216 212 218 198 214 178 210 229 233 250 246 171 239 328 275 246 242 250 252 250 252 255 258
350 347 345 352 341 344 349 333 345 348 342 284 274 281 286 268 246 328 236 224 216 217 184 236 267 177 161 236 208 237 225 251 232 194 246 188 277 272 222 241 232 251 248 256 264
336 345 339 336 321 327 330 331 315 333 320 275 290 311 312 222 313 17 217 227 242 204 134 236 236 216 227 233 171 240 197 221 225 224 238 226 254 269 149 256 254 255 251 246 240
332 331 336 333 307 313 331 306 300 54 253 320 317 351 359 241 262 242 171 218 215 227 214 248 287 277 265 346 195 135 119 95 91 143 220 227 201 270 217 202 246 186 177 210 217
330 329 327 325 320 330 334 327 346 199 344 307 331 359 318 271 284 205 188 175 219 221 238 252 243 206 187 209 67 156 148 194 209 182 235 177 177 237 219 215 209 202 154 141 128
331 331 320 314 316 343 346 100 225 235 246 346 340 287 261 331 241 289 267 263 231 133 358 244 293 209 189 208 186 177 222 173 213 214 224 157 225 239 233 258 211 156 145 131 119
329 332 315 308 311 321 175 181 217 223 266 328 313 350 303 305 264 341 234 242 251 190 197 279 265 44 84 338 206 173 216 214 99 53 240 202 275 290 203 213 158 157 158 135 120
326 333 299 330 42 136 204 234 234 226 301 193 284 238 256 268 348 360 278 236 261 223 255 204 286 261 333 143 19 133 313 164 168 194 216 239 262 238 284 188 166 175 170 156 122
324 322 291 347 8 234 201 228 269 274 231 222 256 276 254 281 219 218 234 282 267 330 192 87 210 271 339 208 192 115 224 343 341 199 194 262 254 230 272 206 185 170 166 155 131
306 333 289 303 351 257 246 213 298 276 247 283 280 263 261 251 234 231 237 240 2 46 212 204 222 245 235 196 149 26 204 191 222 208 235 296 257 59 277 233 147 158 143 129 123
238 255 275 225 217 242 282 281 293 298 238 245 259 270 329 303 330 267 246 64 12 282 279 170 212 288 303 358 0 179 191 211 220 106 202 182 263 9 29 84 116 130 128 122 120
255 261 206 199 230 176 203 258 253 323 283 292 295 317 317 298 256 277 293 358 341 0 342 295 216 208 220 227 101 137 27 297 185 225 199 233 286 0 28 110 92 98 120 122 131
237 225 218 212 246 194 169 207 204 259 220 230 294 139 304 276 329 312 5 323 335 34 19 12 298 343 293 242 237 252 230 205 223 248 245 281 261 272 172 229 279 90 136 139 148
253 193 188 216 180 153 200 223 208 231 165 255 217 178 173 194 194 282 68 338 261 317 352 100 309 311 275 265 216 244 233 234 229 224 248 255 266 281 128 292 251 250 167 175 196
263 244 232 203 175 183 199 206 217 182 229 218 188 170 210 224 237 244 264 250 248 242 244 239 204 345 273 335 300 311 237 224 186 56 313 243 299 336 276 253 345 315 256 218 182